FW6984 Weather Reports


time (UTC)temp
F
wind
direction
speed
knots
gust
knots
rain 1hr
in
rain 24hr
in
rain mn
in
humidity
%
barometer
mb
20260507223527 79 198 1.7 7.8 0.00 0.00 0.00 16 1006.9
20260507223025 79 177 4.3 9.6 0.00 0.00 0.00 17 1006.8
20260507222527 79 216 6.1 9.6 0.00 0.00 0.00 16 1007.0
20260507222024 79 198 4.3 11.3 0.00 0.00 0.00 16 1007.0
20260507221533 79 200 6.1 12.2 0.00 0.00 0.00 16 1007.1
20260507221022 79 183 6.1 12.2 0.00 0.00 0.00 17 1007.1
20260507220521 78 164 3.5 9.6 0.00 0.00 0.00 17 1007.2
20260507220021 79 185 3.5 9.6 0.00 0.00 0.00 17 1007.2
20260507215522 79 210 3.5 8.7 0.00 0.00 0.00 17 1007.3
20260507215020 79 256 5.2 11.3 0.00 0.00 0.00 17 1007.3
20260507214519 79 260 6.1 12.2 0.00 0.00 0.00 17 1007.3
20260507214018 79 250 7.8 13.0 0.00 0.00 0.00 17 1007.3
20260507213518 79 267 6.1 9.6 0.00 0.00 0.00 17 1007.4
20260507213018 79 325 0.9 5.2 0.00 0.00 0.00 18 1007.5
20260507212515 79 192 1.7 9.6 0.00 0.00 0.00 18 1007.5
20260507212015 78 233 5.2 8.7 0.00 0.00 0.00 18 1007.6
20260507211521 78 169 5.2 8.7 0.00 0.00 0.00 18 1007.6
20260507211013 79 189 4.3 7.8 0.00 0.00 0.00 18 1007.7
20260507210512 78 160 1.7 9.6 0.00 0.00 0.00 18 1007.8
20260507210012 78 230 5.2 9.6 0.00 0.00 0.00 18 1007.9
20260507205511 78 248 4.3 9.6 0.00 0.00 0.00 19 1007.9
20260507205011 79 231 4.3 7.8 0.00 0.00 0.00 19 1008.0
20260507204510 78 191 1.7 8.7 0.00 0.00 0.00 19 1008.0
20260507204009 78 283 5.2 8.7 0.00 0.00 0.00 20 1008.1
20260507203511 78 277 1.7 6.1 0.00 0.00 0.00 20 1008.1
20260507203010 78 155 3.5 7.8 0.00 0.00 0.00 19 1008.2
20260507202507 78 216 5.2 7.8 0.00 0.00 0.00 19 1008.3
20260507202006 78 173 0.0 6.1 0.00 0.00 0.00 19 1008.5
20260507201505 78 320 2.6 8.7 0.00 0.00 0.00 19 1008.6
20260507201007 78 105 2.6 7.0 0.00 0.00 0.00 20 1008.8
20260507200503 77 195 0.0 5.2 0.00 0.00 0.00 21 1008.8
20260507200002 77 55 1.7 8.7 0.00 0.00 0.00 20 1008.9
20260507195503 77 193 4.3 8.7 0.00 0.00 0.00 21 1008.9
20260507195101 77 182 4.3 8.7 0.00 0.00 0.00 20 1009.1
20260507194559 76 217 3.5 8.7 0.00 0.00 0.00 21 1009.1
20260507194057 76 247 4.3 9.6 0.00 0.00 0.00 22 1009.2
20260507193558 76 195 6.1 9.6 0.00 0.00 0.00 21 1009.3
20260507193058 76 195 1.7 8.7 0.00 0.00 0.00 21 1009.5
20260507192558 75 171 3.5 8.7 0.00 0.00 0.00 21 1009.6
20260507192054 76 231 6.1 12.2 0.00 0.00 0.00 22 1009.6
20260507191558 75 183 0.9 12.2 0.00 0.00 0.00 21 1009.7
20260507191053 75 263 7.0 11.3 0.00 0.00 0.00 22 1009.8
20260507190553 75 245 3.5 11.3 0.00 0.00 0.00 21 1010.0
20260507190057 75 215 4.3 9.6 0.00 0.00 0.00 22 1010.0
20260507185553 75 318 2.6 9.6 0.00 0.00 0.00 22 1010.1
20260507185048 75 258 2.6 9.6 0.00 0.00 0.00 23 1010.1
20260507184556 74 289 3.5 8.7 0.00 0.00 0.00 24 1010.2
20260507184047 75 261 6.1 8.7 0.00 0.00 0.00 23 1010.2
20260507183546 75 268 2.6 8.7 0.00 0.00 0.00 23 1010.2
20260507183048 75 270 2.6 5.2 0.00 0.00 0.00 23 1010.3
20260507182545 76 339 1.7 6.1 0.00 0.00 0.00 23 1010.4
20260507182044 75 90 0.9 7.8 0.00 0.00 0.00 23 1010.5
20260507181540 74 60 0.9 7.8 0.00 0.00 0.00 24 1010.5
20260507181039 74 355 2.6 7.8 0.00 0.00 0.00 24 1010.6
20260507180542 73 259 1.7 6.1 0.00 0.00 0.00 24 1010.7
20260507180039 73 262 1.7 7.8 0.00 0.00 0.00 24 1010.8
20260507175537 73 350 4.3 7.8 0.00 0.00 0.00 24 1010.9
20260507175033 73 248 2.6 6.1 0.00 0.00 0.00 27 1011.0
20260507174536 72 177 1.7 6.1 0.00 0.00 0.00 26 1010.9
20260507174034 72 179 2.6 6.1 0.00 0.00 0.00 26 1011.1
20260507173532 72 148 3.5 7.0 0.00 0.00 0.00 26 1011.1
20260507173032 72 151 2.6 6.1 0.00 0.00 0.00 27 1011.2
20260507172528 71 161 3.5 7.8 0.00 0.00 0.00 27 1011.2
20260507172026 71 189 4.3 7.8 0.00 0.00 0.00 27 1011.3
20260507171525 71 179 3.5 5.2 0.00 0.00 0.00 27 1011.4
20260507171024 71 170 0.9 5.2 0.00 0.00 0.00 28 1011.4
20260507170523 71 185 1.7 5.2 0.00 0.00 0.00 29 1011.4
20260507170022 70 96 0.0 4.3 0.00 0.00 0.00 28 1011.5
20260507165519 70 29 1.7 4.3 0.00 0.00 0.00 28 1011.7
20260507165018 70 27 2.6 7.0 0.00 0.00 0.00 29 1011.6
20260507164517 71 6 3.5 7.0 0.00 0.00 0.00 28 1011.7
20260507164016 70 128 0.9 3.5 0.00 0.00 0.00 28 1011.8
20260507163514 69 140 1.7 3.5 0.00 0.00 0.00 29 1011.9
20260507163012 68 337 1.7 3.5 0.00 0.00 0.00 30 1011.9
20260507162511 68 27 0.0 4.3 0.00 0.00 0.00 30 1012.0
20260507162010 67 36 1.7 7.8 0.00 0.00 0.00 31 1012.0
20260507161508 67 40 2.6 6.1 0.00 0.00 0.00 31 1012.2
20260507161006 66 341 1.7 5.2 0.00 0.00 0.00 29 1012.2
20260507160505 66 8 2.6 6.1 0.00 0.00 0.00 30 1012.4
20260507160004 66 50 2.6 6.1 0.00 0.00 0.00 31 1012.5
20260507155502 65 110 3.5 6.1 0.00 0.00 0.00 32 1012.5
20260507155001 65 22 2.6 6.1 0.00 0.00 0.00 35 1012.5
20260507154601 64 12 3.5 8.7 0.00 0.00 0.00 36 1012.5
20260507154101 63 43 3.5 8.7 0.00 0.00 0.00 36 1012.5
20260507153556 63 345 3.5 8.7 0.00 0.00 0.00 37 1012.5
20260507153059 62 27 4.3 8.7 0.00 0.00 0.00 38 1012.5
20260507152555 61 54 4.3 7.8 0.00 0.00 0.00 37 1012.5
20260507152051 61 14 2.6 7.8 0.00 0.00 0.00 38 1012.6
20260507151550 60 39 4.3 8.7 0.00 0.00 0.00 40 1012.6
20260507151049 60 360 5.2 8.7 0.00 0.00 0.00 40 1012.6
20260507150547 60 29 3.5 8.7 0.00 0.00 0.00 41 1012.6
20260507150046 59 14 6.1 9.6 0.00 0.00 0.00 41 1012.6
20260507145545 59 10 5.2 9.6 0.00 0.00 0.00 41 1012.6
20260507145043 59 29 4.3 7.8 0.00 0.00 0.00 42 1012.7
20260507144543 58 350 3.5 8.7 0.00 0.00 0.00 43 1012.7
20260507144040 58 33 4.3 9.6 0.00 0.00 0.00 43 1012.8
20260507143539 57 50 6.1 9.6 0.00 0.00 0.00 43 1012.8
20260507143038 57 37 7.0 10.4 0.00 0.00 0.00 44 1012.7
20260507142538 57 31 7.0 10.4 0.00 0.00 0.00 44 1012.8
20260507142035 56 17 7.0 10.4 0.00 0.00 0.00 45 1012.8
20260507141532 56 46 7.0 9.6 0.00 0.00 0.00 44 1012.8
20260507141035 55 40 4.3 9.6 0.00 0.00 0.00 44 1012.9
20260507140530 56 24 5.2 7.8 0.00 0.00 0.00 44 1012.9
20260507140031 56 33 3.5 6.1 0.00 0.00 0.00 44 1013.0
20260507135526 55 35 2.6 7.8 0.00 0.00 0.00 44 1012.8
20260507135025 55 85 3.5 6.1 0.00 0.00 0.00 44 1012.9
20260507134527 55 100 3.5 6.1 0.00 0.00 0.00 45 1012.8
20260507134021 54 54 2.6 5.2 0.00 0.00 0.00 46 1012.7
20260507133520 54 15 2.6 7.8 0.00 0.00 0.00 47 1012.5
20260507133018 53 31 3.5 8.7 0.00 0.00 0.00 47 1012.4
20260507132517 53 38 5.2 9.6 0.00 0.00 0.00 47 1012.4
20260507132015 52 25 5.2 9.6 0.00 0.00 0.00 47 1012.3
20260507131516 52 32 6.1 11.3 0.00 0.00 0.00 47 1012.2
20260507131014 52 51 6.1 12.2 0.00 0.00 0.00 48 1012.2
20260507130512 51 32 6.1 11.3 0.00 0.00 0.00 48 1012.2
20260507130010 51 27 6.1 11.3 0.00 0.00 0.00 48 1012.1
20260507125509 50 31 6.1 9.6 0.00 0.00 0.00 48 1012.1
20260507125007 50 38 4.3 10.4 0.00 0.00 0.00 47 1012.1
20260507124506 50 42 7.0 10.4 0.00 0.00 0.00 47 1012.1
20260507124006 50 50 7.0 10.4 0.00 0.00 0.00 46 1012.1
20260507123505 50 50 7.0 9.6 0.00 0.00 0.00 46 1012.0
20260507123006 50 48 5.2 8.7 0.00 0.00 0.00 45 1012.0
20260507122502 50 47 6.1 10.4 0.00 0.00 0.00 45 1012.0
20260507122001 50 47 7.0 11.3 0.00 0.00 0.00 45 1011.8
20260507121621 49 66 7.0 11.3 0.00 0.00 0.00 45 1011.8
20260507121100 49 66 6.1 10.4 0.00 0.00 0.00 44 1011.7
20260507120559 48 64 6.1 9.6 0.00 0.00 0.00 43 1011.8
20260507120105 48 64 5.2 9.6 0.00 0.00 0.00 43 1011.8
20260507115558 48 71 6.1 9.6 0.00 0.00 0.00 42 1011.7
20260507115056 48 60 4.3 7.8 0.00 0.00 0.00 42 1011.7
20260507114635 48 48 3.5 7.8 0.00 0.00 0.00 42 1011.7
20260507114059 48 66 4.3 7.8 0.00 0.00 0.00 42 1011.6
20260507113555 48 81 2.6 5.2 0.00 0.00 0.00 41 1011.6
20260507113055 48 68 2.6 4.3 0.00 0.00 0.00 40 1011.7
20260507112554 48 59 2.6 4.3 0.00 0.00 0.00 38 1011.6
20260507112054 48 91 1.7 5.2 0.00 0.00 0.00 37 1011.6
20260507111558 48 98 2.6 6.1 0.00 0.00 0.00 35 1011.6
20260507111053 48 84 2.6 6.1 0.00 0.00 0.00 34 1011.6
20260507110551 49 79 3.5 5.2 0.00 0.00 0.00 33 1011.8
20260507110051 49 104 1.7 6.1 0.00 0.00 0.00 33 1011.8
20260507105549 49 126 4.3 6.1 0.00 0.00 0.00 33 1011.7
20260507105047 50 76 3.5 4.3 0.00 0.00 0.00 32 1011.5
20260507104546 51 56 1.7 2.6 0.00 0.00 0.00 31 1011.5
20260507104045 51 56 0.0 4.3 0.00 0.00 0.00 31 1011.5
20260507103545 51 56 1.7 7.0 0.00 0.00 0.00 30 1011.4
20260507103045 51 76 4.3 7.8 0.00 0.00 0.00 31 1011.3
20260507102544 51 78 5.2 8.7 0.00 0.00 0.00 31 1011.3
20260507102045 51 110 5.2 7.8 0.00 0.00 0.00 31 1011.4
20260507101545 52 107 3.5 7.8 0.00 0.00 0.00 30 1011.4
20260507101040 52 51 4.3 7.8 0.00 0.00 0.00 30 1011.4
20260507100539 52 54 4.3 7.8 0.00 0.00 0.00 30 1011.2
20260507100039 52 54 5.2 8.7 0.00 0.00 0.00 29 1011.2
20260507095537 53 37 5.2 8.7 0.00 0.00 0.00 29 1011.1
20260507095037 53 41 5.2 9.6 0.00 0.00 0.00 29 1011.1
20260507094536 54 21 7.0 10.4 0.00 0.00 0.00 28 1011.1
20260507094037 54 31 6.1 10.4 0.00 0.00 0.00 28 1011.1
20260507093535 55 32 6.1 9.6 0.00 0.00 0.00 27 1011.0
20260507093035 55 46 6.1 9.6 0.00 0.00 0.00 27 1011.1
20260507092535 56 35 5.2 10.4 0.00 0.00 0.00 26 1011.0
20260507092034 56 28 6.1 10.4 0.00 0.00 0.00 25 1011.0
20260507091542 56 47 3.5 6.1 0.00 0.00 0.00 25 1011.0
20260507091034 56 50 3.5 7.8 0.00 0.00 0.00 25 1010.9
20260507090537 56 46 4.3 7.8 0.00 0.00 0.00 26 1010.9
20260507090038 56 50 5.2 7.8 0.00 0.00 0.00 26 1010.9
20260507085536 54 68 5.2 7.0 0.00 0.00 0.00 28 1011.0
20260507085034 53 87 2.6 5.2 0.00 0.00 0.00 29 1011.0
20260507084532 53 77 2.6 7.0 0.00 0.00 0.00 29 1011.0
20260507084033 53 63 4.3 6.1 0.00 0.00 0.00 30 1010.9
20260507083531 53 42 5.2 6.1 0.00 0.00 0.00 30 1010.9
20260507083032 54 40 4.3 6.1 0.00 0.00 0.00 29 1010.9
20260507082529 55 48 3.5 4.3 0.00 0.00 0.00 28 1010.9
20260507082027 55 59 2.6 4.3 0.00 0.00 0.00 27 1011.0
20260507081527 56 56 1.7 4.3 0.00 0.00 0.00 27 1011.0
20260507081027 56 56 2.6 7.0 0.00 0.00 0.00 26 1011.0
20260507080527 55 59 3.5 7.8 0.00 0.00 0.00 27 1011.0
20260507080027 55 81 6.1 7.8 0.00 0.00 0.00 27 1011.0
20260507075525 55 85 4.3 7.0 0.00 0.00 0.00 27 1010.9
20260507075024 56 84 3.5 5.2 0.00 0.00 0.00 26 1010.9
20260507074524 56 64 1.7 5.2 0.00 0.00 0.00 26 1010.9
20260507074022 56 55 3.5 7.8 0.00 0.00 0.00 26 1010.9
20260507073521 56 52 5.2 7.8 0.00 0.00 0.00 26 1010.9
20260507073021 55 60 4.3 7.0 0.00 0.00 0.00 26 1011.0
20260507072521 56 80 4.3 6.1 0.00 0.00 0.00 27 1011.1
20260507072019 56 69 3.5 5.2 0.00 0.00 0.00 26 1011.1
20260507071518 56 88 3.5 5.2 0.00 0.00 0.00 27 1011.1
20260507071017 56 80 2.6 5.2 0.00 0.00 0.00 27 1011.1
20260507070516 56 64 1.7 5.2 0.00 0.00 0.00 26 1011.1
20260507070017 57 63 2.6 5.2 0.00 0.00 0.00 26 1011.1
20260507065514 57 81 2.6 5.2 0.00 0.00 0.00 25 1011.1
20260507065014 57 66 3.5 5.2 0.00 0.00 0.00 25 1011.1
20260507064514 58 81 2.6 5.2 0.00 0.00 0.00 24 1011.0
20260507064013 57 71 4.3 7.8 0.00 0.00 0.00 24 1011.1
20260507063511 57 71 5.2 7.8 0.00 0.00 0.00 25 1011.1
20260507063011 57 83 6.1 7.8 0.00 0.00 0.00 25 1011.1
20260507062509 57 69 5.2 7.0 0.00 0.00 0.00 25 1011.1
20260507062108 57 69 4.3 6.1 0.00 0.00 0.00 26 1011.0
20260507061508 57 75 1.7 4.3 0.00 0.00 0.00 25 1011.0
20260507061007 57 73 3.5 5.2 0.00 0.00 0.00 25 1011.0
20260507060506 57 74 2.6 7.0 0.00 0.00 0.00 25 1011.0
20260507060005 57 74 4.3 7.0 0.00 0.00 0.00 25 1011.1
20260507055505 58 88 3.5 6.1 0.00 0.00 0.00 24 1011.1
20260507055003 58 88 4.3 7.0 0.00 0.00 0.00 23 1011.1
20260507054506 58 69 3.5 7.0 0.00 0.00 0.00 24 1011.0
20260507054001 59 110 1.7 3.5 0.00 0.00 0.00 24 1010.9
20260507053503 59 109 0.0 2.6 0.00 0.00 0.00 22 1010.8
20260507053001 60 110 0.9 5.2 0.00 0.00 0.00 22 1010.8
20260507052502 60 110 2.6 7.8 0.00 0.00 0.00 21 1010.7
20260507052002 61 107 2.6 7.8 0.00 0.00 0.00 21 1010.8
20260507051501 61 116 4.3 6.1 0.00 0.00 0.00 20 1010.9
20260507051001 62 96 3.5 6.1 0.00 0.00 0.00 20 1010.8
20260507050559 62 360 1.7 3.5 0.00 0.00 0.00 20 1010.8
20260507050059 63 291 0.9 4.3 0.00 0.00 0.00 19 1010.6
20260507045559 63 291 0.9 4.3 0.00 0.00 0.00 19 1010.6
20260507045057 64 219 2.6 4.3 0.00 0.00 0.00 18 1010.5
20260507044558 64 209 0.9 4.3 0.00 0.00 0.00 18 1010.5
20260507044057 64 210 1.7 5.2 0.00 0.00 0.00 18 1010.5
20260507043557 63 198 1.7 4.3 0.00 0.00 0.00 18 1010.5
20260507043056 63 226 1.7 7.0 0.00 0.00 0.00 19 1010.5
20260507042556 62 262 1.7 7.0 0.00 0.00 0.00 20 1010.3
20260507042056 62 161 3.5 5.2 0.00 0.00 0.00 20 1010.3
20260507041556 62 161 1.7 2.6 0.00 0.00 0.00 20 1010.2
20260507041056 62 161 1.7 5.2 0.00 0.00 0.00 20 1010.2
20260507040557 63 161 3.5 5.2 0.00 0.00 0.00 19 1010.2
20260507040100 65 177 2.6 3.5 0.00 0.00 0.00 18 1010.1
20260507035555 65 293 0.0 3.5 0.00 0.00 0.00 17 1010.1
20260507035055 66 293 0.9 7.0 0.00 0.00 0.00 17 1010.1
20260507034557 66 292 3.5 8.7 0.00 0.00 0.00 17 1009.9
20260507034054 66 253 5.2 11.3 0.00 0.00 0.00 17 1009.8
20260507033554 67 265 6.1 11.3 0.00 0.00 0.00 16 1009.7
20260507033100 67 274 7.0 12.2 0.00 0.00 0.00 16 1009.7
20260507032554 67 246 7.0 12.2 0.00 0.00 0.00 16 1009.7
20260507032055 66 241 6.1 10.4 0.00 0.00 0.00 16 1009.6
20260507031553 66 255 3.5 8.7 0.00 0.00 0.00 16 1009.5
20260507031053 66 245 4.3 8.7 0.00 0.00 0.00 16 1009.5
20260507030556 66 222 2.6 4.3 0.00 0.00 0.00 16 1009.5
20260507030053 67 245 2.6 6.1 0.00 0.00 0.00 16 1009.4
20260507025552 67 240 3.5 6.1 0.00 0.00 0.00 15 1009.3
20260507025152 66 270 2.6 4.3 0.00 0.00 0.00 16 1009.3
20260507024604 67 306 0.0 4.3 0.00 0.00 0.00 16 1009.1
20260507024055 67 305 1.7 4.3 0.00 0.00 0.00 15 1009.1
20260507023555 68 310 2.6 5.2 0.00 0.00 0.00 15 1008.9
20260507023052 68 265 1.7 9.6 0.00 0.00 0.00 15 1008.8
20260507022555 69 250 5.2 9.6 0.00 0.00 0.00 15 1008.8
20260507022050 69 249 4.3 12.2 0.00 0.00 0.00 14 1008.6
20260507021552 69 228 7.0 12.2 0.00 0.00 0.00 14 1008.6
20260507021049 69 227 4.3 11.3 0.00 0.00 0.00 14 1008.6
20260507020549 70 235 7.0 11.3 0.00 0.00 0.00 14 1008.4
20260507020106 70 242 3.5 11.3 0.00 0.00 0.00 14 1008.5
20260507015550 70 258 7.8 13.9 0.00 0.00 0.00 14 1008.4
20260507015048 70 252 7.8 15.6 0.00 0.00 0.00 13 1008.3
20260507014552 71 265 9.6 16.5 0.00 0.00 0.00 14 1008.3
20260507014047 71 244 7.8 13.9 0.00 0.00 0.00 14 1008.2
20260507013547 71 256 10.4 14.8 0.00 0.00 0.00 13 1008.2
20260507013054 72 248 9.6 14.8 0.00 0.00 0.00 13 1008.2
20260507012546 72 262 7.8 15.6 0.00 0.00 0.00 14 1008.2
20260507012046 72 272 9.6 15.6 0.00 0.00 0.00 14 1008.2
20260507011546 72 258 8.7 14.8 0.00 0.00 0.00 14 1008.1
20260507011045 72 222 8.7 14.8 0.00 0.00 0.00 13 1008.1
20260507010545 72 276 11.3 17.4 0.00 0.00 0.00 14 1008.0
20260507010048 72 302 11.3 19.1 0.00 0.00 0.00 14 1008.0
20260507005545 73 251 11.3 19.1 0.00 0.00 0.00 14 1007.9
20260507005047 73 272 10.4 16.5 0.00 0.00 0.00 14 1007.9
20260507004553 73 249 10.4 16.5 0.00 0.00 0.00 13 1007.9
20260507004044 73 263 9.6 20.0 0.00 0.00 0.00 14 1007.7
20260507003543 73 250 13.0 20.0 0.00 0.00 0.00 14 1007.8
20260507003048 73 264 9.6 15.6 0.00 0.00 0.00 13 1007.7
20260507002543 73 282 8.7 16.5 0.00 0.00 0.00 14 1007.7
20260507002042 73 231 10.4 20.0 0.00 0.00 0.00 14 1007.6
20260507001545 73 244 12.2 20.0 0.00 0.00 0.00 14 1007.6
20260507001041 73 243 11.3 20.9 0.00 0.00 0.00 14 1007.5
20260507000545 73 252 14.8 20.9 0.00 0.00 0.00 14 1007.6
20260507000041 73 280 11.3 17.4 0.00 0.00 0.00 14 1007.6
20260506235539 73 247 11.3 19.1 0.00 0.00 0.00 14 1007.5
20260506235039 73 253 13.0 19.1 0.00 0.00 0.00 14 1007.5
20260506234543 74 257 11.3 20.9 0.00 0.00 0.00 14 1007.3
20260506234038 73 260 9.6 20.9 0.00 0.00 0.00 14 1007.3
20260506233638 74 245 11.3 18.2 0.00 0.00 0.00 14 1007.4
20260506233041 73 256 10.4 26.9 0.00 0.00 0.00 14 1007.4
20260506232536 73 258 13.9 26.9 0.00 0.00 0.00 14 1007.5
20260506232036 73 266 16.5 26.1 0.00 0.00 0.00 14 1007.5
20260506231536 73 231 13.0 21.7 0.00 0.00 0.00 14 1007.5
20260506231037 73 276 9.6 18.2 0.00 0.00 0.00 14 1007.5
20260506230536 73 281 13.9 19.1 0.00 0.00 0.00 14 1007.6
20260506230044 73 277 13.0 26.1 0.00 0.00 0.00 14 1007.6
20260506225534 74 270 10.4 26.1 0.00 0.00 0.00 14 1007.6
20260506225034 73 273 14.8 21.7 0.00 0.00 0.00 14 1007.5
20260506224534 73 259 13.0 18.2 0.00 0.00 0.00 14 1007.6
20260506224032 74 239 12.2 22.6 0.00 0.00 0.00 14 1007.6